Location: Edinburgh
(55.9500°N, 3.1600°W)
Time: 10:20:00
(UTC+01:00)

AO-91 - Pass Details

Date: 29 May 2024
Orbit: 442 x 732 km, 97.6° (Epoch: 16 June)

Event Time Altitude Azimuth Distance (km) Brightness Sun altitude
Rises 22:56:58 0° 15° (NNE) 2,917 ? -7.3°
Reaches altitude 10° 22:59:06 10° 17° (NNE) 2,049 ? -7.4°
Maximum altitude 23:03:37 75° 103° (ESE) 708 ? -7.7°
Drops below altitude 10° 23:08:26 10° 190° (S) 2,181 ? -8.1°
Enters shadow 23:10:02 - 191° (SSW) 2,825 ? -8.2°
